This is the latest recevied weather packets stored in our database for station/object N6RDS-8. If no packets are shown the sender has not sent any weather packets the latest 10 day(s).
| Time | Temp. | Humidity | Pressure | Rain* | Wind** | Luminosity | Snow |
|---|---|---|---|---|---|---|---|
| 1777489237 | 25° C | 18% | 1020 hPa | 0 mm | - | 818 W/m² | - |
| 1777488933 | 24.44° C | 18% | 1020.1 hPa | 0 mm | - | 626 W/m² | - |
| 1777488630 | 23.33° C | 20% | 1020.3 hPa | 0 mm | - | 324 W/m² | - |
| 1777488328 | 23.89° C | 18% | 1020 hPa | 0 mm | - | 295 W/m² | - |
| 1777488027 | 25° C | 18% | 1020.1 hPa | 0 mm | - | 398 W/m² | - |
| 1777487724 | 23.89° C | 19% | 1020.3 hPa | 0 mm | - | 593 W/m² | - |
| 1777487421 | 23.33° C | 18% | 1020.6 hPa | 0 mm | - | 321 W/m² | - |
| 1777487119 | 23.89° C | 19% | 1020.6 hPa | 0 mm | - | 366 W/m² | - |
| 1777486814 | 23.89° C | 20% | 1020.7 hPa | 0 mm | - | 332 W/m² | - |
| 1777486512 | 22.78° C | 20% | 1020.6 hPa | 0 mm | - | 622 W/m² | - |
| 1777486204 | 23.33° C | 20% | 1020.8 hPa | 0 mm | - | 544 W/m² | - |
| 1777485902 | 22.22° C | 20% | 1020.6 hPa | 0 mm | - | 546 W/m² | - |
| 1777485597 | 22.22° C | 22% | 1020.8 hPa | 0 mm | - | 568 W/m² | - |
| 1777485293 | 22.22° C | 22% | 1021 hPa | 0 mm | - | 478 W/m² | - |
| 1777484989 | 22.22° C | 23% | 1021 hPa | 0 mm | - | 503 W/m² | - |
| 1777484687 | 22.22° C | 22% | 1021.1 hPa | 0 mm | - | 352 W/m² | - |
| 1777484383 | 21.67° C | 24% | 1021.1 hPa | 0 mm | - | 396 W/m² | - |
| 1777484078 | 21.67° C | 23% | 1021.1 hPa | 0 mm | - | 283 W/m² | - |
| 1777483775 | 22.22° C | 24% | 1021.3 hPa | 0 mm | - | 341 W/m² | - |
| 1777483472 | 21.67° C | 24% | 1021.1 hPa | 0 mm | - | 329 W/m² | - |
| 1777483167 | 21.11° C | 25% | 1020.9 hPa | 0 mm | - | 296 W/m² | - |
| 1777482864 | 21.11° C | 25% | 1021.1 hPa | 0 mm | - | 315 W/m² | - |
| 1777482559 | 21.11° C | 26% | 1021.1 hPa | 0 mm | - | 273 W/m² | - |
| 1777482257 | 21.67° C | 26% | 1021.3 hPa | 0 mm | - | 307 W/m² | - |
| 1777481954 | 21.11° C | 26% | 1021 hPa | 0 mm | - | 456 W/m² | - |
* Rain latest hour (hover to see other rain measurements)
** Current wind speed in m/s (hover to see current wind gust speed)